DateTime,Index
2002092118,0.0
2002092200,0.0
2002092206,0.0
2002092212,0.0
2002092218,0.0
2002092300,1225.0
2002092306,1600.0
2002092312,2025.0
2002092318,2500.0
2002092400,2500.0
2002092406,2500.0
2002092412,3600.0
2002092418,2500.0
2002092500,1225.0
2002092506,1225.0
2002092512,1600.0
2002092518,1600.0
2002092600,1225.0
2002092606,1225.0
2002092612,0.0
2002092618,0.0
2002092700,0.0
2002092706,0.0
2002092712,1225.0
2002092718,1600.0
2002092800,2025.0
2002092806,2025.0
2002092812,2025.0
2002092818,2025.0
2002092900,2025.0
2002092906,1600.0
2002092912,2025.0
2002092918,2500.0
2002093000,3025.0
2002093006,3600.0
2002093012,4225.0
2002093018,4225.0
2002100100,4900.0
2002100106,5625.0
2002100112,8100.0
2002100118,8100.0
2002100200,8100.0
2002100206,10000.0
2002100212,12100.0
2002100218,14400.0
2002100300,15625.0
2002100306,11025.0
2002100312,6400.0
2002100318,3600.0
2002100400,1600.0
2002100406,0.0
2002100412,0.0
